#timestamp,LO_Frequency,Hit,StdDev 
1675987215.1,286047000.3,N
1675987235.8,286047000.0,N
1675987255.7,286047003.6,N
1675987275.5,286047002.1,N
1675987295.3,286046999.8,N
1675987315.2,286047000.2,N
1675987335.0,286047000.9,N
1675987335.9,286047000.9,N
1675987355.8,286047002.8,N
1675987375.6,286047001.4,N
1675987395.4,286047000.9,N
1675987415.3,286047000.6,N
1675987435.1,286047002.0,N
1675987455.9,286047001.9,N
1675987475.7,286047002.7,N
1675987495.5,286047000.7,N
1675987515.4,286047005.8,Y
1675987535.2,286047001.3,P
1675987555.0,286047005.5,P
1675987555.9,286047005.5,N
1675987575.8,286047005.0,N
1675987595.6,286047004.4,N
1675987615.5,286047002.1,N
1675987635.3,286047004.5,N
1675987655.1,286047003.6,N
1675987675.9,286047004.0,N
1675987695.7,286047003.2,N
1675987715.5,286047002.8,N
1675987735.4,286046998.1,N
1675987755.2,286047000.6,N
1675987775.1,286047002.5,N
1675987776.0,286047002.5,N
1675987795.8,286047002.5,N
1675987815.6,286047000.1,N
1675987835.5,286047000.1,N
1675987855.3,286047002.3,N
1675987875.1,286047000.0,N
1675987895.9,286047001.1,N
1675987915.7,286047001.0,N
1675987935.6,286047001.2,N
1675987955.4,286046996.5,N
1675987975.2,286046999.3,N
1675987995.1,286046998.8,N
1675987996.0,286046998.8,N
1675988015.8,286047001.0,N
1675988035.6,286047001.2,N
1675988055.5,286046997.0,N
1675988075.3,286046999.0,N
1675988095.2,286046999.1,N
1675988115.9,286046998.7,N
1675988135.7,286046999.2,N
1675988155.6,286047001.1,N
1675988175.4,286046999.6,N
1675988195.2,286046994.9,N
1675988215.1,286046994.9,N
1675988216.0,286046994.9,N
1675988235.8,286046996.4,N
1675988255.7,286046996.1,N
1675988275.5,286046998.0,N
1675988295.3,286046994.9,N
1675988315.2,286046999.6,N
1675988335.0,286047002.8,N
1675988335.9,286047002.8,N
1675988355.8,286046999.8,N
1675988375.6,286047000.5,N
1675988395.4,286046998.8,N
1675988415.3,286046999.2,N
1675988435.1,286046995.9,N
1675988455.8,286046995.3,N
1675988475.7,286046993.7,N
1675988495.5,286046992.1,Y
1675988515.4,286046994.5,P
1675988535.2,286046997.0,N
1675988555.0,286046996.6,N
1675988555.9,286046996.6,N
1675988575.8,286046997.3,N
1675988595.6,286046998.0,N
1675988615.4,286046999.1,N
1675988635.3,286046999.2,N
1675988655.1,286046996.5,N
1675988675.9,286046996.0,Y
1675988695.7,286046997.4,P
1675988715.5,286046996.9,P
1675988735.4,286046997.4,P
1675988755.2,286047000.0,N
1675988775.0,286046996.9,N
1675988775.9,286046996.9,N
1675988795.8,286046998.8,N
1675988815.6,286046996.5,Y
1675988835.5,286047000.3,P
1675988855.3,286046999.9,N
1675988875.1,286047001.9,N
1675988895.9,286047002.5,N
1675988915.7,286047000.2,N
1675988935.5,286047002.6,N
1675988955.4,286047002.7,N
1675988975.2,286047003.2,N
1675988995.1,286047004.3,N
1675988996.0,286047004.3,N
1675989015.8,286047005.1,N
1675989035.6,286047006.1,N
1675989055.5,286047009.0,Y
1675989075.3,286047006.3,P
1675989095.1,286047005.4,N
1675989115.9,286047007.3,P
1675989135.7,286047007.2,Y
1675989155.6,286047001.1,P
1675989175.4,286046998.7,N
1675989195.2,286046997.2,N
1675989215.1,286046995.7,N
1675989216.0,286046995.7,N
1675989235.8,286046995.0,N
1675989255.7,286046996.1,N
1675989275.5,286046997.7,N
1675989295.3,286046995.1,N
1675989315.2,286046995.8,N
1675989335.9,286046996.4,N
1675989355.7,286046995.9,N
1675989375.6,286046999.4,N
1675989395.4,286046999.4,N
1675989415.2,286046997.7,N
1675989435.1,286047000.4,N
1675989436.0,286047000.4,N
1675989455.8,286047000.1,N
1675989475.7,286047000.1,N
1675989495.5,286046998.5,N
1675989515.3,286047000.7,N
1675989535.2,286047001.1,N
1675989555.0,286047002.2,N
1675989555.9,286047002.2,N
1675989575.8,286047002.8,N
1675989595.6,286046998.4,N
1675989615.4,286046999.4,N
1675989635.3,286046998.5,N
1675989655.1,286046999.1,N
1675989656.0,286046999.1,N
1675989675.8,286046997.2,N
1675989695.7,286046997.5,N
1675989715.5,286046993.3,Y
1675989735.4,286046993.5,P
1675989755.2,286046996.4,N
1675989775.0,286046996.2,N
1675989775.9,286046996.2,N
1675989795.8,286046996.0,N
1675989815.6,286046993.9,Y
1675989835.4,286046998.2,P
1675989855.3,286047001.7,N
1675989875.1,286047001.9,N
1675989895.9,286047001.7,N
1675989915.7,286047002.2,N
1675989935.5,286046999.8,N
1675989955.4,286047001.8,N
1675989975.2,286047003.7,N
1675989995.0,286046999.9,N
1675989995.9,286046999.9,N
1675990015.8,286047000.0,N
1675990035.6,286047002.3,N
1675990055.5,286047001.0,N
1675990075.3,286047001.0,N
1675990095.1,286046998.3,N
1675990115.9,286046999.0,N
1675990135.7,286046998.7,N
1675990155.5,286046999.0,N
1675990175.4,286046999.0,N
1675990195.2,286046996.9,N
1675990215.1,286046996.9,N
1675990216.0,286046996.9,N
1675990235.8,286046997.5,N
1675990255.6,286046995.9,N
1675990275.5,286046999.4,N
1675990295.3,286046997.7,N
1675990315.1,286046997.0,N
1675990335.9,286046997.9,N
1675990355.7,286046996.6,N
1675990375.6,286046999.1,N
1675990395.4,286046997.7,N
1675990415.2,286046997.1,N
1675990435.1,286047000.4,N
1675990436.0,286047000.4,N
1675990455.8,286047000.9,N
1675990475.6,286047000.5,N
1675990495.5,286047002.1,N
1675990515.3,286046998.1,N
1675990535.2,286046999.5,N
1675990555.9,286046997.0,N
1675990575.7,286046999.2,N
1675990595.6,286046998.7,N
1675990615.4,286046997.1,N
1675990635.2,286047001.0,N
1675990655.1,286047001.1,N
1675990656.0,286047001.1,N
1675990675.8,286046999.0,N
1675990695.7,286046997.0,N
1675990715.5,286046996.7,N
1675990735.3,286046999.2,N
1675990755.2,286046999.0,N
1675990775.0,286046996.7,N
1675990775.9,286046996.7,N
1675990795.7,286046998.5,N
